Regional Weather Roundup
Issued by NWS

Home | Current Version | Previous Version | Text Only | Print | Product List | Glossary On
Versions: 1 2 3 4 5 6 7 8 9 10 11 12 13 14 15 16 17 18 19 20 21 22 23 24 25 26 27 28 29 30 31 32 33 34 35 36 37 38 39 40 41 42 43 44 45 46 47 48 49 50
000
ASUS46 KSEW 240010
RWRWA

WASHINGTON REGIONAL WEATHER ROUNDUP
NATIONAL WEATHER SERVICE SEATTLE WA
500 PM PDT SUN APR 23 2017

NOTE:"FAIR" INDICATES FEW OR NO CLOUDS BELOW 12,000 FEET WITH NO
SIGNIFICANT WEATHER AND/OR OBSTRUCTIONS TO VISIBILITY.

WAZ507-509-555>559-240100-
SEATTLE, TACOMA, EVERETT, AND VICINITY

CITY           SKY/WX    TMP DP  RH WIND       PRES   REMARKS
EVERETT        LGT RAIN  48  45  89 SE16G23   29.82S
6HR MIN TEMP:  47; 6HR MAX TEMP:  52; 6HR PCP:  0.08;

BOEING FIELD   LGT RAIN  51  49  92 S8        29.85S
6HR MIN TEMP:  51; 6HR MAX TEMP:  54; 6HR PCP:  0.13;

RENTON         LGT RAIN  51  51 100 SE10      29.84F
6HR MIN TEMP:  51; 6HR MAX TEMP:  54; 6HR PCP:  0.04;

SEATAC AIRPORT LGT RAIN  50  48  93 SW8       29.84S
6HR MIN TEMP:  50; 6HR MAX TEMP:  53; 6HR PCP:  0.18;

JBLM-MCCHORD   PTSUNNY   50  50 100 S12       29.85F
                                      6HR PCP:  0.09;

PUYALLUP       LGT RAIN  48  48 100 SW6       29.86S
BREMERTON      NOT AVBL
JBLM-FT LEWIS  NOT AVBL
TACOMA NARROWS LGT RAIN  49  47  93 W3        29.85S
6HR MIN TEMP:  49; 6HR MAX TEMP:  51; 6HR PCP:  0.19;

$$

WAZ001-503-506-510-514-515-240100-
NORTH INTERIOR

CITY           SKY/WX    TMP DP  RH WIND       PRES   REMARKS
BELLINGHAM     CLOUDY    53  44  71 SE14G25   29.78F
6HR MIN TEMP:  53; 6HR MAX TEMP:  57; 6HR PCP: TRACE;

FRIDAY HARBOR  CLOUDY    53  46  77 SE15G22   29.78F
6HR MIN TEMP:  52; 6HR MAX TEMP:  54; 6HR PCP: TRACE;

EASTSOUND      CLOUDY    52  45  76 S13G18    29.76F
PORT ANGELES   PTSUNNY   52  46  80 W12       29.77S
6HR MIN TEMP:  49; 6HR MAX TEMP:  54; 6HR PCP: TRACE;

EDIZ HOOK      MOCLDY    53  47  82 W14       29.76S
6HR MIN TEMP:  49; 6HR MAX TEMP:  53;

PORT TOWNSEND  NOT AVBL
NAS WHIDBEY    CLOUDY    54  43  66 SE21G29   29.82F
6HR MIN TEMP:  53; 6HR MAX TEMP:  59; 6HR PCP:  0.03;

ARLINGTON      CLOUDY    50  41  71 SE17      29.84F
6HR MIN TEMP:  48; 6HR MAX TEMP:  55; 6HR PCP:  0.01;

BURLINGTON     PTSUNNY   52  45  76 SE12      29.80F
$$

WAZ020-022-039-040-504-511-512-240100-
SOUTHWEST INTERIOR

CITY           SKY/WX    TMP DP  RH WIND       PRES   REMARKS
SHELTON        LGT RAIN  50  46  86 SW10      29.82F
6HR MIN TEMP:  50; 6HR MAX TEMP:  51; 6HR PCP:  0.42;

OLYMPIA        LGT RAIN  49  47  93 SW8       29.85S
6HR MIN TEMP:  48; 6HR MAX TEMP:  52; 6HR PCP:  0.19;

CHEHALIS       LGT RAIN  52  45  76 SW7G15    29.85F
KELSO          LGT RAIN  52  47  83 VRB5      29.89S
6HR MIN TEMP:  51; 6HR MAX TEMP:  54; 6HR PCP:  0.21;

VANCOUVER      CLOUDY    54  45  71 S7        29.89F
6HR MIN TEMP:  53; 6HR MAX TEMP:  56; 6HR PCP:  0.06;

SCAPPOOSE, OR  CLOUDY    53  45  74 W3        29.88F
6HR MIN TEMP:  51; 6HR MAX TEMP:  54; 6HR PCP:  0.12;

PORTLAND, OR   CLOUDY    53  46  77 S8        29.90S
6HR MIN TEMP:  51; 6HR MAX TEMP:  56; 6HR PCP:  0.06;

$$

WAZ021-516-517-240100-
WASHINGTON COAST

CITY           SKY/WX    TMP DP  RH WIND       PRES   REMARKS
FORKS          LGT RAIN  48  47  96 S9G17     29.78F
6HR MIN TEMP:  48; 6HR MAX TEMP:  49; 6HR PCP:  0.61;

HOQUIAM        LGT RAIN  50  48  93 S17       29.83F FOG
6HR MIN TEMP:  49; 6HR MAX TEMP:  51; 6HR PCP:  0.25;

ASTORIA, OR    LGT RAIN  49  45  86 SW14G22   29.86F
6HR MIN TEMP:  48; 6HR MAX TEMP:  51; 6HR PCP:  0.31;

$$

WAZ019-023-024-040-567>569-240100-
CASCADE MOUNTAINS AND COLUMBIA GORGE

CITY           SKY/WX    TMP DP  RH WIND       PRES   REMARKS
STAMPEDE PASS  FOG       37  37 100 VRB3      29.79F VSB 1
6HR MIN TEMP:  36; 6HR MAX TEMP:  44; 6HR PCP:  0.18;

TROUTDALE, OR  LGT RAIN  55  46  71 W9        29.90F
6HR MIN TEMP:  51; 6HR MAX TEMP:  57; 6HR PCP:  0.09;

THE DALLES, OR CLOUDY    55  43  63 NW16      29.85F
6HR MIN TEMP:  54; 6HR MAX TEMP:  62; 6HR PCP:  0.01;

$$

WAZ026-027-041>044-520-521-240100-
EAST SLOPES

CITY           SKY/WX    TMP DP  RH WIND       PRES   REMARKS
OMAK           CLOUDY    61  32  33 S14       29.72F
6HR MIN TEMP:  53; 6HR MAX TEMP:  61;

WENATCHEE      PTSUNNY   58  34  40 SW6       29.74F
6HR MIN TEMP:  53; 6HR MAX TEMP:  61;

ELLENSBURG     CLOUDY    55  39  54 CALM      29.77F
6HR MIN TEMP:  52; 6HR MAX TEMP:  58; 6HR PCP:  0.01;

YAKIMA         CLOUDY    59  40  49 S16G22    29.77F
6HR MIN TEMP:  57; 6HR MAX TEMP:  63; 6HR PCP: TRACE;

SUNNYSIDE ARPT CLOUDY    56  39  52 W16       29.81S
6HR MIN TEMP:  55; 6HR MAX TEMP:  62;

$$

WAZ028-034-035-240100-
COLUMBIA BASIN

CITY           SKY/WX    TMP DP  RH WIND       PRES   REMARKS
EPHRATA        CLOUDY    60  33  36 SW12      29.75F
6HR MIN TEMP:  56; 6HR MAX TEMP:  63;

MOSES LAKE     CLOUDY    57  39  51 W5        29.77S
6HR MIN TEMP:  56; 6HR MAX TEMP:  64; 6HR PCP: TRACE;

PASCO          CLOUDY    65  34  31 W12       29.79S
6HR MIN TEMP:  62; 6HR MAX TEMP:  68;

HERMISTON, OR  CLOUDY    63  41  44 W16G24    29.79S
6HR MIN TEMP:  60; 6HR MAX TEMP:  66;

$$

WAZ036>038-240100-
NORTHEAST WASHINGTON

CITY           SKY/WX    TMP DP  RH WIND       PRES   REMARKS
SPOKANE GEIGER PTSUNNY   55  34  45 SW17      29.77F
6HR MIN TEMP:  49; 6HR MAX TEMP:  56; 6HR PCP:  0.01;

SPOKANE FELTS  CLOUDY    58  34  40 SW15G25   29.77F
6HR MIN TEMP:  53; 6HR MAX TEMP:  59; 6HR PCP: TRACE;

FAIRCHILD AFB  PTSUNNY   55  35  46 SW15      29.76F
6HR MIN TEMP:  50; 6HR MAX TEMP:  56;

COEURDALENE,ID CLOUDY    56  37  49 SW15      29.77F
6HR MIN TEMP:  50; 6HR MAX TEMP:  57; 6HR PCP:  0.02;

DEER PARK      CLOUDY    57  33  40 S14       29.77S
6HR MIN TEMP:  50; 6HR MAX TEMP:  57; 6HR PCP:  0.03;

$$

WAZ029>033-240100-
SOUTHEAST WASHINGTON

CITY           SKY/WX    TMP DP  RH WIND       PRES   REMARKS
PULLMAN        PTSUNNY   54  37  52 SW9       29.82F
6HR MIN TEMP:  49; 6HR MAX TEMP:  55;

LEWISTON, ID   CLOUDY    57  44  62 S8        29.80F
6HR MIN TEMP:  52; 6HR MAX TEMP:  59; 6HR PCP:  0.01;

WALLA WALLA    CLOUDY    61  41  47 S9        29.80F
6HR MIN TEMP:  56; 6HR MAX TEMP:  65;

PENDLETON, OR  CLOUDY    58  42  55 S6        29.79F
6HR MIN TEMP:  55; 6HR MAX TEMP:  59;

$$



USA.gov is the U.S. government's official web portal to all federal, state and local government web resources and services.